Home   Weather   The Valley   Past weeks
Flag for Anguilla

Past Weather in The Valley, Anguilla — Yesterday and Last 2 Weeks

Now
79 °F

Scattered showers. Passing clouds.


Feels Like: 81 °F
Forecast: 83 / 77 °F
Wind: 15 mph from East

Location: Juliana Airport - Saint Maarten

Current Time: Apr 19, 2019 at 12:35:04 am

Latest Report: Apr 19, 2019 at 12:00 am


Visibility: N/A

Pressure: 30.07 "Hg

Humidity: 70%

Dew Point: 68 °F

Location of The ValleyLocation

Past Weather in The Valley — Graph

°F

The Valley Temperature Yesterday

Maximum temperature yesterday: 86 °F (at 1:00 pm)
Minimum temperature yesterday: 77 °F (at 12:00 am)
Average temperature yesterday: 80 °F

High & Low Weather Summary for the Past Weeks

 TemperatureHumidityPressure
High86 °F (Apr 17, 1:00 pm)89% (Apr 11, 3:21 am)30.15 "Hg (Apr 11, 3:21 am)
Low73 °F (Apr 11, 3:21 am)48% (Apr 7, 3:00 pm)29.92 "Hg (Apr 15, 3:00 pm)
Average80 °F69%30.05 "Hg
* Reported Apr 3 11:00 pm — Apr 18 11:00 pm, The Valley. Weather by CustomWeather, © 2019

Note: Actual official high and low records may vary slightly from our data, if they occured in-between our weather recording intervals... More about our weather records

Advertising

The Valley Weather History for the Previous 24 Hours

Scroll right to see more
 ConditionsComfort  
Time TempWeatherWind HumidityBarometerVisibility
11:00 pm
Thu, Apr 18
79 °FPassing clouds.16 mph70%30.07 "HgN/A
10:00 pm79 °FPassing clouds.14 mph70%30.07 "HgN/A
9:00 pm79 °FPassing clouds.14 mph65%30.04 "HgN/A
8:00 pm79 °FPassing clouds.16 mph65%30.04 "HgN/A
7:00 pm79 °FPassing clouds.17 mph70%30.01 "HgN/A
6:00 pm81 °FScattered clouds.16 mph66%30.01 "HgN/A
5:00 pm82 °FScattered clouds.15 mph62%29.98 "HgN/A
4:00 pm82 °FScattered clouds.13 mph62%29.98 "HgN/A
3:00 pm84 °FPassing clouds.17 mph58%30.01 "HgN/A
2:00 pm84 °FPassing clouds.13 mph55%30.01 "HgN/A
1:00 pm86 °FPassing clouds.14 mph52%30.04 "HgN/A
12:00 pm84 °FPassing clouds.13 mph58%30.04 "HgN/A
11:00 am84 °FPassing clouds.14 mph58%30.07 "HgN/A
10:00 am82 °FPassing clouds.15 mph62%30.07 "HgN/A
8:00 am79 °FPassing clouds.12 mph70%30.04 "HgN/A
7:00 am77 °FScattered clouds.13 mph74%30.01 "HgN/A
6:00 am77 °FPassing clouds.13 mph74%30.01 "HgN/A
5:00 am77 °FPassing clouds.12 mph74%29.98 "HgN/A
4:00 am77 °FPassing clouds.13 mph74%29.98 "HgN/A
3:00 am77 °FPassing clouds.14 mph74%29.98 "HgN/A
2:00 am77 °FPassing clouds.13 mph74%29.98 "HgN/A
1:00 am77 °FPassing clouds.14 mph74%30.01 "HgN/A
12:00 am77 °FPassing clouds.12 mph74%30.01 "HgN/A
Weather by CustomWeather, © 2019

See weather overview